Elkins, WV

5:46 AM EDT on August 26, 2016 (GMT -0400)
Elkins-Randolph County

Weather History for KEKN - August, 2013

Change the Weather History Date:

Wednesday, August 7, 2013

  Actual Average Record
Temperature  
Mean Temperature 72 °F 70 °F  
Max Temperature 84 °F 81 °F 98 °F (1918)
Min Temperature 60 °F 59 °F 44 °F (1957)
Degree Days  
Heating Degree Days 0 0  
Month to date heating degree days 3 0  
Since 1 June heating degree days 19 67  
Since 1 July heating degree days 7 12  
Cooling Degree Days 7 5  
Month to date cooling degree days 23 35  
Year to date cooling degree days 353 316  
Since 1 June cooling degree days 328 293  
Growing Degree Days 22 (Base 50)    
Moisture  
Dew Point 65 °F    
Average Humidity 78    
Maximum Humidity 97    
Minimum Humidity 58    
Precipitation  
Precipitation 0.25 in 0.13 in 1.24 in (1968)
Month to date precipitation 0.59 0.94  
Year to date precipitation 25.47 29.91  
Snow  
Snow 0.00 in - - ()
Month to date snowfall 0.0  
Since 1 September snowfall 77.5  
Snow Depth 0.00 in    
Sea Level Pressure  
Sea Level Pressure 30.04 in    
Wind  
Wind Speed 2 mph (SW)    
Max Wind Speed 13 mph    
Max Gust Speed 18 mph    
Visibility 9 miles    
Events Rain    
T = Trace of Precipitation, MM = Missing Value Source: NWS Daily Summary

Daily Weather History Graph

Daily Weather History Graph

Search for Another Location

Airport or City:

Trip Planner

Search our weather history database for the weather conditions in past years. The results will help you decide how hot, cold, wet, or windy it might be!

Date:

Astronomy

Aug. 07, 2013 Rise Set
Actual Time 6:25 AM EDT 8:23 PM EDT
Civil Twilight 5:56 AM EDT 8:52 PM EDT
Nautical Twilight 5:21 AM EDT 9:28 PM EDT
Astronomical Twilight 4:43 AM EDT 10:06 PM EDT
Moon 7:11 AM EDT (8/7) 8:31 PM EDT (8/7)
Length of Visible Light 14h 55m
Length of Day
13h 57m
New Moon, 1% of the Moon is Illuminated
Aug 7
New Moon
Aug 14
First Quarter
Aug 20
Full
Aug 28
Last Quarter
Sep 5
New

Hourly Weather History & Observations

Time (EDT) Temp. Heat Index Dew Point Humidity Pressure Visibility Wind Dir Wind Speed Gust Speed Precip Events Conditions
12:51 AM 62.1 °F - 60.1 °F 93% 30.04 in 10.0 mi Calm Calm - N/A   Scattered Clouds
1:51 AM 61.0 °F - 59.0 °F 93% 30.04 in 10.0 mi Calm Calm - N/A   Mostly Cloudy
2:51 AM 62.1 °F - 60.1 °F 93% 30.04 in 10.0 mi Calm Calm - N/A   Mostly Cloudy
3:51 AM 62.1 °F - 60.1 °F 93% 30.04 in 10.0 mi Calm Calm - N/A   Mostly Cloudy
4:51 AM 63.0 °F - 61.0 °F 93% 30.04 in 10.0 mi Calm Calm - N/A   Overcast
5:51 AM 63.0 °F - 61.0 °F 93% 30.04 in 10.0 mi Calm Calm - N/A   Mostly Cloudy
6:51 AM 62.1 °F - 60.1 °F 93% 30.05 in 10.0 mi Calm Calm - N/A   Mostly Cloudy
7:51 AM 64.0 °F - 61.0 °F 90% 30.06 in 10.0 mi Calm Calm - N/A   Overcast
8:31 AM 64.4 °F - 62.6 °F 94% 30.08 in 10.0 mi Calm Calm - N/A   Overcast
8:51 AM 66.9 °F - 63.0 °F 87% 30.07 in 10.0 mi Calm Calm - N/A   Mostly Cloudy
9:00 AM 68.0 °F - 62.6 °F 83% 30.08 in 10.0 mi Calm Calm - N/A   Mostly Cloudy
9:51 AM 73.0 °F - 64.9 °F 76% 30.05 in 10.0 mi Variable 3.5 mph - N/A   Clear
10:51 AM 78.1 °F - 66.0 °F 66% 30.04 in 10.0 mi SSW 6.9 mph - N/A   Partly Cloudy
11:51 AM 80.1 °F 82.1 °F 66.0 °F 62% 30.04 in 10.0 mi SW 8.1 mph - N/A   Mostly Cloudy
12:51 PM 82.0 °F 84.1 °F 66.0 °F 58% 30.03 in 10.0 mi SW 6.9 mph - N/A   Partly Cloudy
1:51 PM 82.0 °F 84.1 °F 66.0 °F 58% 30.02 in 10.0 mi NW 6.9 mph - N/A   Mostly Cloudy
2:51 PM 81.0 °F 83.0 °F 66.0 °F 60% 30.01 in 10.0 mi South 8.1 mph - N/A   Mostly Cloudy
3:51 PM 75.9 °F - 64.0 °F 67% 30.02 in 10.0 mi Calm Calm - 0.00 in Rain Light Rain
4:51 PM 77.0 °F - 66.0 °F 69% 30.01 in 10.0 mi North 4.6 mph - 0.00 in   Clear
5:51 PM 75.0 °F - 69.1 °F 82% 30.01 in 10.0 mi NW 4.6 mph - N/A   Mostly Cloudy
6:09 PM 71.6 °F - 69.8 °F 94% 30.05 in 2.5 mi SSW 5.8 mph - 0.17 in Rain Heavy Rain
6:17 PM 73.4 °F - 68.0 °F 83% 30.04 in 7.0 mi South 6.9 mph - 0.21 in Rain Light Rain
6:51 PM 71.1 °F - 68.0 °F 90% 30.04 in 10.0 mi Calm Calm - 0.23 in Rain Light Rain
7:51 PM 71.1 °F - 68.0 °F 90% 30.04 in 10.0 mi Calm Calm - 0.01 in Rain Light Rain
8:51 PM 70.0 °F - 68.0 °F 93% 30.04 in 10.0 mi Calm Calm - 0.01 in   Mostly Cloudy
9:26 PM 69.8 °F - 68.0 °F 94% 30.07 in 9.0 mi Calm Calm - 0.00 in   Overcast
9:51 PM 69.1 °F - 68.0 °F 96% 30.04 in 9.0 mi Calm Calm - 0.00 in   Overcast
10:15 PM 69.8 °F - 68.0 °F 94% 30.08 in 8.0 mi Calm Calm - N/A   Overcast
10:51 PM 69.1 °F - 66.9 °F 93% 30.05 in 8.0 mi Calm Calm - N/A   Overcast
11:08 PM 69.8 °F - 66.2 °F 88% 30.08 in 10.0 mi Calm Calm - N/A   Overcast
11:51 PM 69.1 °F - 66.9 °F 93% 30.04 in 7.0 mi Calm Calm - 0.00 in   Overcast